status,avgMeasuredTime,avgSpeed,extID,medianMeasuredTime,TIMESTAMP,vehicleCount,_id,REPORT_ID
OK,129,41,998,129,2014-08-01T08:00:00,2,20747053,198113
OK,159,33,998,159,2014-08-01T08:10:00,0,20747875,198113
OK,159,33,998,159,2014-08-01T08:15:00,0,20748324,198113
OK,129,41,998,129,2014-08-01T08:20:00,1,20748773,198113
OK,120,44,998,120,2014-08-01T08:25:00,3,20749222,198113
OK,121,44,998,121,2014-08-01T08:30:00,4,20749671,198113
OK,154,34,998,154,2014-08-01T08:40:00,5,20750569,198113
OK,159,33,998,159,2014-08-01T08:50:00,0,20751467,198113
OK,126,42,998,126,2014-08-01T09:00:00,1,20752365,198113
OK,126,42,998,126,2014-08-01T09:05:00,3,20752814,198113
OK,115,46,998,115,2014-08-01T09:10:00,2,20753263,198113
OK,182,29,998,182,2014-08-01T09:20:00,2,20754161,198113
OK,139,38,998,139,2014-08-01T09:25:00,3,20754610,198113
OK,131,40,998,131,2014-08-01T09:30:00,2,20755059,198113
OK,132,40,998,132,2014-08-01T09:35:00,3,20755508,198113
OK,128,41,998,128,2014-08-01T09:40:00,1,20755957,198113
OK,128,41,998,128,2014-08-01T09:45:00,0,20756406,198113
OK,135,39,998,135,2014-08-01T09:50:00,1,20756855,198113
OK,126,42,998,126,2014-08-01T09:55:00,4,20757304,198113
OK,112,47,998,112,2014-08-01T10:00:00,4,20757753,198113
OK,144,37,998,144,2014-08-01T10:15:00,1,20759100,198113
OK,234,22,998,234,2014-08-01T10:20:00,1,20759549,198113
OK,234,22,998,234,2014-08-01T10:25:00,1,20759998,198113
OK,234,22,998,234,2014-08-01T10:30:00,0,20760447,198113
OK,234,22,998,234,2014-08-01T10:35:00,0,20760896,198113
OK,139,38,998,139,2014-08-01T10:40:00,2,20761345,198113
OK,130,41,998,130,2014-08-01T10:50:00,4,20762243,198113
OK,160,33,998,160,2014-08-01T11:00:00,1,20763141,198113
OK,208,25,998,208,2014-08-01T11:20:00,2,20764936,198113
OK,208,25,998,208,2014-08-01T11:25:00,2,20765385,198113
OK,124,43,998,124,2014-08-01T11:30:00,1,20765834,198113
OK,132,40,998,132,2014-08-01T11:35:00,4,20766283,198113
OK,125,42,998,125,2014-08-01T11:40:00,1,20766732,198113
OK,125,42,998,125,2014-08-01T11:45:00,0,20767181,198113
OK,125,42,998,125,2014-08-01T11:50:00,0,20767630,198113
OK,125,42,998,125,2014-08-01T11:55:00,0,20768079,198113
OK,125,42,998,125,2014-08-01T12:00:00,0,20768528,198113
OK,112,47,998,112,2014-08-01T12:10:00,3,20769426,198113
OK,134,40,998,134,2014-08-01T12:20:00,2,20770324,198113
OK,141,38,998,141,2014-08-01T12:25:00,3,20770773,198113
OK,146,36,998,146,2014-08-01T12:30:00,2,20771222,198113
OK,151,35,998,151,2014-08-01T12:35:00,3,20771671,198113
OK,161,33,998,161,2014-08-01T12:40:00,2,20772120,198113
OK,106,50,998,106,2014-08-01T12:45:00,1,20772569,198113
OK,140,38,998,140,2014-08-01T12:50:00,3,20773018,198113
OK,159,33,998,159,2014-08-01T12:55:00,5,20773467,198113
OK,125,42,998,125,2014-08-01T13:00:00,3,20773916,198113
OK,124,43,998,124,2014-08-01T13:05:00,0,20774365,198113
OK,161,33,998,161,2014-08-01T13:10:00,1,20774814,198113
OK,156,34,998,156,2014-08-01T13:15:00,2,20775263,198113
OK,156,34,998,156,2014-08-01T13:20:00,5,20775712,198113
OK,150,35,998,150,2014-08-01T13:25:00,10,20776161,198113
OK,150,35,998,150,2014-08-01T13:30:00,6,20776610,198113
OK,115,46,998,115,2014-08-01T13:35:00,1,20777059,198113
OK,106,50,998,106,2014-08-01T13:40:00,2,20777508,198113
OK,121,44,998,121,2014-08-01T13:45:00,4,20777957,198113
OK,122,43,998,122,2014-08-01T13:50:00,5,20778406,198113
OK,139,38,998,139,2014-08-01T14:00:00,2,20779304,198113
OK,145,36,998,145,2014-08-01T14:05:00,3,20779753,198113
OK,135,39,998,135,2014-08-01T14:10:00,2,20780202,198113
OK,164,32,998,164,2014-08-01T14:15:00,3,20780651,198113
OK,164,32,998,164,2014-08-01T14:20:00,3,20781100,198113
OK,121,44,998,121,2014-08-01T14:25:00,0,20781549,198113
OK,121,44,998,121,2014-08-01T14:30:00,0,20781998,198113
OK,121,44,998,121,2014-08-01T14:35:00,0,20782447,198113
OK,129,41,998,129,2014-08-01T14:40:00,2,20782896,198113
OK,129,41,998,129,2014-08-01T14:45:00,2,20783345,198113
OK,139,38,998,139,2014-08-01T14:50:00,2,20783794,198113
OK,110,48,998,110,2014-08-01T15:00:00,1,20784692,198113
OK,110,48,998,110,2014-08-01T15:05:00,0,20785141,198113
OK,140,38,998,140,2014-08-01T15:10:00,1,20785590,198113
OK,140,38,998,140,2014-08-01T15:15:00,0,20786039,198113
OK,194,27,998,194,2014-08-01T15:20:00,1,20786488,198113
OK,152,35,998,152,2014-08-01T15:25:00,1,20786937,198113
OK,135,39,998,135,2014-08-01T15:30:00,2,20787386,198113
OK,119,45,998,119,2014-08-01T15:35:00,1,20787835,198113
OK,119,45,998,119,2014-08-01T15:40:00,0,20788284,198113
OK,119,45,998,119,2014-08-01T15:45:00,0,20788733,198113
OK,119,45,998,119,2014-08-01T15:50:00,0,20789182,198113
OK,119,45,998,119,2014-08-01T15:55:00,0,20789631,198113
OK,119,45,998,119,2014-08-01T16:00:00,0,20790080,198113
OK,119,45,998,119,2014-08-01T16:05:00,0,20790529,198113
OK,119,45,998,119,2014-08-01T16:10:00,0,20790978,198113
OK,125,42,998,125,2014-08-01T16:15:00,2,20791427,198113
OK,126,42,998,126,2014-08-01T16:20:00,3,20791876,198113
OK,142,37,998,142,2014-08-01T16:25:00,1,20792325,198113
OK,142,37,998,142,2014-08-01T16:30:00,0,20792774,198113
OK,136,39,998,136,2014-08-01T16:35:00,1,20793223,198113
OK,136,39,998,136,2014-08-01T16:40:00,0,20793672,198113
OK,115,46,998,115,2014-08-01T16:45:00,1,20794121,198113
OK,115,46,998,115,2014-08-01T16:50:00,1,20794570,198113
OK,122,43,998,122,2014-08-01T16:55:00,1,20795019,198113
OK,122,43,998,122,2014-08-01T17:00:00,1,20795468,198113
OK,122,43,998,122,2014-08-01T17:05:00,0,20795917,198113
OK,122,43,998,122,2014-08-01T17:10:00,0,20796366,198113
OK,122,43,998,122,2014-08-01T17:15:00,0,20796815,198113
OK,122,43,998,122,2014-08-01T17:20:00,0,20797264,198113
OK,116,46,998,116,2014-08-01T17:25:00,1,20797713,198113
OK,116,46,998,116,2014-08-01T17:30:00,1,20798162,198113
OK,116,46,998,116,2014-08-01T17:35:00,0,20798611,198113
OK,116,46,998,116,2014-08-01T17:40:00,0,20799060,198113
OK,116,46,998,116,2014-08-01T17:45:00,0,20799509,198113
OK,116,46,998,116,2014-08-01T17:50:00,0,20799958,198113
OK,116,46,998,116,2014-08-01T17:55:00,0,20800407,198113
OK,116,46,998,116,2014-08-01T18:00:00,0,20800856,198113
OK,116,46,998,116,2014-08-01T18:05:00,0,20801305,198113
OK,116,46,998,116,2014-08-01T18:10:00,0,20801754,198113
OK,116,46,998,116,2014-08-01T18:15:00,0,20802203,198113
OK,116,46,998,116,2014-08-01T18:20:00,0,20802652,198113
OK,159,33,998,159,2014-08-01T18:25:00,2,20803101,198113
OK,159,33,998,159,2014-08-01T18:30:00,2,20803550,198113
OK,161,33,998,161,2014-08-01T18:35:00,0,20803999,198113
OK,161,33,998,161,2014-08-01T18:40:00,0,20804448,198113
OK,161,33,998,161,2014-08-01T18:45:00,0,20804897,198113
OK,161,33,998,161,2014-08-01T18:50:00,0,20805346,198113
OK,161,33,998,161,2014-08-01T18:55:00,0,20805795,198113
OK,161,33,998,161,2014-08-01T19:00:00,0,20806244,198113
OK,161,33,998,161,2014-08-01T19:05:00,0,20806693,198113
OK,161,33,998,161,2014-08-01T19:10:00,0,20807142,198113
OK,161,33,998,161,2014-08-01T19:15:00,0,20807591,198113
OK,161,33,998,161,2014-08-01T19:20:00,0,20808040,198113
OK,161,33,998,161,2014-08-01T19:25:00,0,20808489,198113
OK,161,33,998,161,2014-08-01T19:30:00,0,20808938,198113
OK,161,33,998,161,2014-08-01T19:35:00,0,20809387,198113
OK,161,33,998,161,2014-08-01T19:40:00,0,20809836,198113
OK,161,33,998,161,2014-08-01T19:45:00,0,20810285,198113
OK,161,33,998,161,2014-08-01T19:50:00,0,20810734,198113
OK,144,37,998,144,2014-08-01T19:55:00,1,20811183,198113
OK,120,44,998,120,2014-08-01T22:00:00,0,20816912,198113
OK,91,58,998,91,2014-08-02T00:00:00,0,20823351,198113
OK,91,58,998,91,2014-08-02T00:05:00,0,20823800,198113
OK,91,58,998,91,2014-08-02T00:10:00,0,20824249,198113
OK,91,58,998,91,2014-08-02T00:15:00,0,20824698,198113
OK,91,58,998,91,2014-08-02T00:20:00,0,20825147,198113
OK,91,58,998,91,2014-08-02T00:25:00,0,20825596,198113
OK,91,58,998,91,2014-08-02T00:30:00,0,20826045,198113
OK,91,58,998,91,2014-08-02T00:35:00,0,20826494,198113
OK,91,58,998,91,2014-08-02T00:40:00,0,20826943,198113
OK,91,58,998,91,2014-08-02T00:45:00,0,20827392,198113
OK,91,58,998,91,2014-08-02T00:50:00,0,20827841,198113
OK,91,58,998,91,2014-08-02T00:55:00,0,20828290,198113
OK,91,58,998,91,2014-08-02T01:00:00,0,20828739,198113
OK,91,58,998,91,2014-08-02T01:05:00,0,20829188,198113
OK,91,58,998,91,2014-08-02T01:10:00,0,20829637,198113
OK,91,58,998,91,2014-08-02T01:15:00,0,20830086,198113
OK,91,58,998,91,2014-08-02T01:20:00,0,20830535,198113
OK,152,35,998,152,2014-08-02T01:25:00,1,20830984,198113
OK,152,35,998,152,2014-08-02T01:30:00,0,20831433,198113
OK,152,35,998,152,2014-08-02T01:35:00,0,20831882,198113
OK,152,35,998,152,2014-08-02T01:40:00,0,20832331,198113
OK,152,35,998,152,2014-08-02T01:45:00,0,20832780,198113
OK,152,35,998,152,2014-08-02T01:50:00,0,20833229,198113
OK,152,35,998,152,2014-08-02T01:55:00,0,20833678,198113
OK,152,35,998,152,2014-08-02T02:00:00,0,20834127,198113
OK,152,35,998,152,2014-08-02T02:05:00,0,20834576,198113
OK,152,35,998,152,2014-08-02T02:10:00,0,20835025,198113
OK,152,35,998,152,2014-08-02T02:15:00,0,20835474,198113
OK,152,35,998,152,2014-08-02T02:20:00,0,20835923,198113
OK,152,35,998,152,2014-08-02T02:25:00,0,20836372,198113
OK,152,35,998,152,2014-08-02T02:30:00,0,20836821,198113
OK,152,35,998,152,2014-08-02T02:35:00,0,20837270,198113
OK,152,35,998,152,2014-08-02T02:40:00,0,20837719,198113
OK,152,35,998,152,2014-08-02T02:45:00,0,20838168,198113
OK,152,35,998,152,2014-08-02T02:50:00,0,20838617,198113
OK,152,35,998,152,2014-08-02T02:55:00,0,20839066,198113
OK,152,35,998,152,2014-08-02T03:00:00,0,20839515,198113
OK,152,35,998,152,2014-08-02T03:05:00,0,20839964,198113
OK,152,35,998,152,2014-08-02T03:10:00,0,20840413,198113
OK,152,35,998,152,2014-08-02T03:15:00,0,20840862,198113
OK,152,35,998,152,2014-08-02T03:20:00,0,20841311,198113
OK,152,35,998,152,2014-08-02T03:25:00,0,20841760,198113
OK,152,35,998,152,2014-08-02T03:30:00,0,20842209,198113
OK,152,35,998,152,2014-08-02T03:35:00,0,20842658,198113
OK,152,35,998,152,2014-08-02T03:40:00,0,20843107,198113
OK,152,35,998,152,2014-08-02T03:45:00,0,20843556,198113
OK,152,35,998,152,2014-08-02T03:50:00,0,20844005,198113
OK,152,35,998,152,2014-08-02T03:55:00,0,20844454,198113
OK,152,35,998,152,2014-08-02T06:00:00,0,20851908,198113
OK,83,64,998,83,2014-08-02T06:05:00,0,20852357,198113
OK,83,64,998,83,2014-08-02T06:10:00,0,20852806,198113
OK,83,64,998,83,2014-08-02T06:15:00,0,20853255,198113
OK,83,64,998,83,2014-08-02T06:20:00,0,20853704,198113
OK,83,64,998,83,2014-08-02T06:25:00,0,20854153,198113
OK,83,64,998,83,2014-08-02T06:30:00,0,20854602,198113
OK,83,64,998,83,2014-08-02T06:35:00,0,20855051,198113
OK,83,64,998,83,2014-08-02T06:40:00,0,20855500,198113
OK,120,44,998,120,2014-08-02T06:45:00,1,20855949,198113
OK,120,44,998,120,2014-08-02T06:50:00,1,20856398,198113
OK,120,44,998,120,2014-08-02T06:55:00,0,20856847,198113
OK,120,44,998,120,2014-08-02T07:00:00,0,20857296,198113
OK,120,44,998,120,2014-08-02T07:05:00,0,20857745,198113
OK,120,44,998,120,2014-08-02T07:10:00,0,20858194,198113
OK,123,43,998,123,2014-08-02T07:15:00,1,20858643,198113
OK,125,42,998,125,2014-08-02T07:20:00,2,20859092,198113
OK,109,49,998,109,2014-08-02T07:25:00,1,20859541,198113
OK,109,49,998,109,2014-08-02T07:30:00,0,20859990,198113
OK,167,32,998,167,2014-08-02T07:35:00,1,20860439,198113
OK,167,32,998,167,2014-08-02T07:40:00,0,20860888,198113
OK,142,37,998,142,2014-08-02T07:45:00,2,20861337,198113
OK,136,39,998,136,2014-08-02T07:50:00,3,20861786,198113
OK,128,41,998,128,2014-08-02T07:55:00,1,20862235,198113
OK,121,44,998,121,2014-08-02T08:00:00,4,20862684,198113
OK,143,37,998,143,2014-08-02T08:05:00,3,20863133,198113
OK,143,37,998,143,2014-08-02T08:10:00,1,20863582,198113
OK,134,40,998,134,2014-08-02T08:15:00,0,20864031,198113
OK,106,50,998,106,2014-08-02T08:20:00,1,20864480,198113
OK,106,50,998,106,2014-08-02T08:25:00,1,20864929,198113
OK,147,36,998,147,2014-08-02T08:30:00,1,20865378,198113
OK,147,36,998,147,2014-08-02T08:35:00,1,20865827,198113
OK,196,27,998,196,2014-08-02T08:40:00,2,20866276,198113
OK,134,40,998,134,2014-08-02T08:45:00,1,20866725,198113
OK,124,43,998,124,2014-08-02T08:50:00,1,20867174,198113
OK,113,47,998,113,2014-08-02T08:55:00,1,20867623,198113
OK,132,40,998,132,2014-08-02T09:00:00,1,20868072,198113
OK,122,43,998,122,2014-08-02T09:05:00,2,20868521,198113
OK,149,35,998,149,2014-08-02T09:10:00,3,20868970,198113
OK,146,36,998,146,2014-08-02T09:15:00,3,20869419,198113
OK,147,36,998,147,2014-08-02T09:20:00,2,20869868,198113
OK,109,49,998,109,2014-08-02T09:25:00,1,20870317,198113
OK,109,49,998,109,2014-08-02T09:30:00,1,20870766,198113
OK,126,42,998,126,2014-08-02T09:35:00,2,20871215,198113
OK,126,42,998,126,2014-08-02T09:40:00,2,20871664,198113
OK,141,38,998,141,2014-08-02T09:45:00,0,20872113,198113
OK,141,38,998,141,2014-08-02T09:50:00,0,20872562,198113
OK,141,38,998,141,2014-08-02T09:55:00,0,20873011,198113
OK,141,38,998,141,2014-08-02T10:00:00,0,20873460,198113
OK,99,54,998,99,2014-08-02T10:05:00,1,20873909,198113
OK,131,40,998,131,2014-08-02T10:10:00,3,20874358,198113
OK,122,43,998,122,2014-08-02T10:15:00,2,20874807,198113
OK,153,35,998,153,2014-08-02T10:20:00,1,20875256,198113
OK,109,49,998,109,2014-08-02T10:25:00,1,20875705,198113
OK,111,48,998,111,2014-08-02T10:30:00,2,20876154,198113
OK,114,47,998,114,2014-08-02T10:35:00,1,20876603,198113
OK,122,43,998,122,2014-08-02T10:40:00,1,20877052,198113
OK,136,39,998,136,2014-08-02T10:45:00,2,20877501,198113
OK,150,35,998,150,2014-08-02T10:50:00,1,20877950,198113
OK,150,35,998,150,2014-08-02T10:55:00,0,20878399,198113
OK,150,35,998,150,2014-08-02T11:00:00,0,20878848,198113
OK,150,35,998,150,2014-08-02T11:05:00,0,20879297,198113
OK,150,35,998,150,2014-08-02T11:10:00,0,20879746,198113
OK,97,55,998,97,2014-08-02T11:15:00,1,20880195,198113
OK,114,47,998,114,2014-08-02T11:20:00,2,20880644,198113
OK,132,40,998,132,2014-08-02T11:25:00,1,20881093,198113
OK,132,40,998,132,2014-08-02T11:30:00,0,20881542,198113
OK,132,40,998,132,2014-08-02T11:35:00,0,20881991,198113
OK,132,40,998,132,2014-08-02T11:40:00,0,20882440,198113
OK,132,40,998,132,2014-08-02T11:45:00,0,20882889,198113
OK,184,29,998,184,2014-08-02T11:50:00,1,20883338,198113
OK,184,29,998,184,2014-08-02T11:55:00,1,20883787,198113
OK,184,29,998,184,2014-08-02T12:00:00,0,20884236,198113
OK,184,29,998,184,2014-08-02T12:05:00,0,20884685,198113
OK,184,29,998,184,2014-08-02T12:10:00,0,20885134,198113
OK,116,46,998,116,2014-08-02T12:15:00,1,20885583,198113
OK,116,46,998,116,2014-08-02T12:20:00,1,20886032,198113
OK,116,46,998,116,2014-08-02T12:25:00,0,20886481,198113
OK,94,57,998,94,2014-08-02T12:30:00,2,20886930,198113
OK,94,57,998,94,2014-08-02T12:35:00,2,20887379,198113
OK,94,57,998,94,2014-08-02T12:40:00,0,20887828,198113
OK,94,57,998,94,2014-08-02T12:45:00,0,20888277,198113
OK,94,57,998,94,2014-08-02T12:50:00,0,20888726,198113
OK,94,57,998,94,2014-08-02T12:55:00,0,20889175,198113
OK,109,49,998,109,2014-08-02T13:00:00,1,20889624,198113
OK,109,49,998,109,2014-08-02T13:05:00,1,20890073,198113
OK,118,45,998,118,2014-08-02T13:10:00,1,20890522,198113
OK,120,44,998,120,2014-08-02T13:15:00,2,20890971,198113
OK,123,43,998,123,2014-08-02T13:20:00,0,20891420,198113
OK,123,43,998,123,2014-08-02T13:25:00,0,20891869,198113
OK,119,45,998,119,2014-08-02T13:30:00,2,20892318,198113
OK,130,41,998,130,2014-08-02T13:35:00,1,20892767,198113
OK,128,41,998,128,2014-08-02T13:40:00,3,20893216,198113
OK,128,41,998,128,2014-08-02T13:45:00,3,20893665,198113
OK,126,42,998,126,2014-08-02T13:50:00,0,20894114,198113
OK,176,30,998,176,2014-08-02T13:55:00,2,20894563,198113
OK,176,30,998,176,2014-08-02T14:00:00,2,20895012,198113
OK,248,21,998,248,2014-08-02T14:05:00,0,20895461,198113
OK,248,21,998,248,2014-08-02T14:10:00,0,20895910,198113
OK,248,21,998,248,2014-08-02T14:15:00,0,20896359,198113
OK,248,21,998,248,2014-08-02T14:20:00,0,20896808,198113
OK,223,24,998,223,2014-08-02T14:25:00,1,20897257,198113
OK,223,24,998,223,2014-08-02T14:30:00,0,20897706,198113
OK,223,24,998,223,2014-08-02T14:35:00,0,20898155,198113
OK,223,24,998,223,2014-08-02T14:40:00,0,20898604,198113
OK,99,54,998,99,2014-08-02T14:45:00,1,20899053,198113
OK,99,54,998,99,2014-08-02T14:50:00,1,20899502,198113
OK,99,54,998,99,2014-08-02T14:55:00,0,20899951,198113
OK,171,31,998,171,2014-08-02T15:00:00,1,20900400,198113
OK,171,31,998,171,2014-08-02T15:05:00,3,20900849,198113
OK,95,56,998,95,2014-08-02T15:10:00,1,20901298,198113
OK,95,56,998,95,2014-08-02T15:15:00,0,20901747,198113
OK,95,56,998,95,2014-08-02T15:20:00,0,20902196,198113
OK,95,56,998,95,2014-08-02T15:25:00,0,20902645,198113
OK,95,56,998,95,2014-08-02T15:30:00,0,20903094,198113
OK,129,41,998,129,2014-08-02T15:35:00,2,20903543,198113
OK,129,41,998,129,2014-08-02T15:40:00,2,20903992,198113
OK,173,30,998,173,2014-08-02T15:45:00,2,20904441,198113
OK,173,30,998,173,2014-08-02T15:50:00,0,20904890,198113
OK,173,30,998,173,2014-08-02T15:55:00,0,20905339,198113
OK,173,30,998,173,2014-08-02T16:00:00,0,20905788,198113
OK,141,38,998,141,2014-08-02T16:05:00,0,20906237,198113
OK,130,41,998,130,2014-08-02T16:10:00,1,20906686,198113
OK,128,41,998,128,2014-08-02T16:15:00,2,20907135,198113
OK,128,41,998,128,2014-08-02T16:20:00,2,20907584,198113
OK,128,41,998,128,2014-08-02T16:25:00,0,20908033,198113
OK,126,42,998,126,2014-08-02T16:30:00,1,20908482,198113
OK,126,42,998,126,2014-08-02T16:35:00,0,20908931,198113
OK,126,42,998,126,2014-08-02T16:40:00,0,20909380,198113
OK,108,49,998,108,2014-08-02T16:45:00,0,20909829,198113
OK,124,43,998,124,2014-08-02T16:50:00,1,20910278,198113
OK,124,43,998,124,2014-08-02T16:55:00,1,20910727,198113
OK,145,36,998,145,2014-08-02T17:00:00,1,20911176,198113
OK,145,36,998,145,2014-08-02T17:05:00,1,20911625,198113
OK,124,43,998,124,2014-08-02T17:10:00,0,20912074,198113
OK,95,56,998,95,2014-08-02T17:15:00,1,20912523,198113
OK,96,55,998,96,2014-08-02T17:20:00,1,20912972,198113
OK,96,55,998,96,2014-08-02T17:25:00,1,20913421,198113
OK,96,55,998,96,2014-08-02T17:30:00,0,20913870,198113
OK,96,55,998,96,2014-08-02T17:35:00,0,20914319,198113
OK,96,55,998,96,2014-08-02T17:40:00,0,20914768,198113
OK,96,55,998,96,2014-08-02T17:45:00,0,20915217,198113
OK,96,55,998,96,2014-08-02T17:50:00,0,20915666,198113
OK,96,55,998,96,2014-08-02T17:55:00,0,20916115,198113
OK,96,55,998,96,2014-08-02T18:00:00,0,20916564,198113
OK,96,55,998,96,2014-08-02T18:05:00,0,20917013,198113
OK,96,55,998,96,2014-08-02T18:10:00,0,20917462,198113
OK,96,55,998,96,2014-08-02T18:15:00,0,20917911,198113
OK,96,55,998,96,2014-08-02T18:20:00,0,20918360,198113
OK,96,55,998,96,2014-08-02T18:25:00,0,20918809,198113
OK,96,55,998,96,2014-08-02T18:30:00,0,20919258,198113
OK,96,55,998,96,2014-08-02T18:35:00,0,20919707,198113
OK,101,53,998,101,2014-08-02T18:40:00,2,20920156,198113
OK,60,89,998,60,2014-08-02T18:45:00,1,20920605,198113
OK,60,89,998,60,2014-08-02T18:50:00,0,20921054,198113
OK,60,89,998,60,2014-08-02T18:55:00,0,20921503,198113
OK,60,89,998,60,2014-08-02T19:00:00,0,20921952,198113
OK,60,89,998,60,2014-08-02T19:05:00,0,20922401,198113
OK,60,89,998,60,2014-08-02T19:10:00,0,20922850,198113
OK,60,89,998,60,2014-08-02T19:15:00,0,20923299,198113
OK,60,89,998,60,2014-08-02T19:20:00,0,20923748,198113
OK,60,89,998,60,2014-08-02T19:25:00,0,20924197,198113
OK,60,89,998,60,2014-08-02T19:30:00,0,20924646,198113
OK,60,89,998,60,2014-08-02T19:35:00,0,20925095,198113
OK,60,89,998,60,2014-08-02T19:40:00,0,20925544,198113
OK,60,89,998,60,2014-08-02T19:45:00,0,20925993,198113
OK,60,89,998,60,2014-08-02T19:50:00,0,20926442,198113
OK,60,89,998,60,2014-08-02T19:55:00,0,20926891,198113
OK,60,89,998,60,2014-08-02T20:00:00,0,20927340,198113
OK,146,36,998,146,2014-08-02T20:05:00,1,20927789,198113
OK,149,35,998,149,2014-08-02T20:10:00,1,20928238,198113
OK,122,43,998,122,2014-08-02T20:15:00,1,20928687,198113
OK,159,33,998,159,2014-08-02T20:20:00,1,20929136,198113
OK,159,33,998,159,2014-08-02T20:25:00,1,20929585,198113
OK,159,33,998,159,2014-08-02T20:30:00,0,20930034,198113
OK,159,33,998,159,2014-08-02T20:35:00,0,20930483,198113
OK,159,33,998,159,2014-08-02T20:40:00,0,20930932,198113
OK,159,33,998,159,2014-08-02T20:45:00,0,20931381,198113
OK,159,33,998,159,2014-08-02T20:50:00,0,20931830,198113
OK,159,33,998,159,2014-08-02T20:55:00,0,20932279,198113
OK,159,33,998,159,2014-08-02T21:00:00,0,20932728,198113
OK,200,26,998,200,2014-08-02T21:05:00,1,20933177,198113
OK,200,26,998,200,2014-08-02T21:10:00,0,20933626,198113
OK,200,26,998,200,2014-08-02T21:15:00,0,20934075,198113
OK,127,42,998,127,2014-08-02T21:20:00,1,20934524,198113
OK,161,33,998,161,2014-08-02T21:25:00,1,20934973,198113
OK,161,33,998,161,2014-08-02T21:30:00,0,20935422,198113
OK,161,33,998,161,2014-08-02T21:35:00,0,20935871,198113
OK,161,33,998,161,2014-08-02T21:40:00,0,20936320,198113
OK,161,33,998,161,2014-08-02T21:45:00,0,20936769,198113
OK,161,33,998,161,2014-08-02T21:50:00,0,20937218,198113
OK,161,33,998,161,2014-08-02T21:55:00,0,20937667,198113
OK,161,33,998,161,2014-08-02T22:00:00,0,20938116,198113
OK,161,33,998,161,2014-08-02T22:05:00,0,20938565,198113
OK,161,33,998,161,2014-08-02T22:10:00,0,20939014,198113
OK,161,33,998,161,2014-08-02T22:15:00,0,20939463,198113
OK,161,33,998,161,2014-08-02T22:20:00,0,20939912,198113
OK,161,33,998,161,2014-08-02T22:25:00,0,20940361,198113
OK,161,33,998,161,2014-08-02T22:30:00,0,20940810,198113
OK,161,33,998,161,2014-08-02T22:35:00,0,20941259,198113
OK,94,57,998,94,2014-08-02T22:40:00,1,20941708,198113
OK,94,57,998,94,2014-08-02T22:45:00,0,20942157,198113
OK,94,57,998,94,2014-08-02T22:50:00,0,20942606,198113
OK,94,57,998,94,2014-08-02T22:55:00,0,20943055,198113
OK,94,57,998,94,2014-08-02T23:00:00,0,20943504,198113
OK,94,57,998,94,2014-08-02T23:10:00,0,20943953,198113
OK,94,57,998,94,2014-08-02T23:15:00,0,20944402,198113
OK,94,57,998,94,2014-08-02T23:20:00,0,20944851,198113
OK,94,57,998,94,2014-08-02T23:25:00,0,20945300,198113
OK,94,57,998,94,2014-08-02T23:30:00,0,20945749,198113
OK,94,57,998,94,2014-08-02T23:35:00,0,20946198,198113
OK,94,57,998,94,2014-08-02T23:40:00,0,20946647,198113
OK,94,57,998,94,2014-08-02T23:45:00,0,20947096,198113
OK,94,57,998,94,2014-08-02T23:50:00,0,20947545,198113
OK,94,57,998,94,2014-08-02T23:55:00,0,20947994,198113
OK,140,38,998,140,2014-08-03T00:00:00,1,20948443,198113
OK,140,38,998,140,2014-08-03T00:05:00,0,20948892,198113
OK,163,32,998,163,2014-08-03T00:10:00,2,20949340,198113
OK,163,32,998,163,2014-08-03T00:15:00,0,20949789,198113
OK,163,32,998,163,2014-08-03T00:20:00,0,20950238,198113
OK,163,32,998,163,2014-08-03T00:25:00,0,20950687,198113
OK,163,32,998,163,2014-08-03T00:30:00,0,20951136,198113
OK,163,32,998,163,2014-08-03T00:35:00,0,20951585,198113
OK,163,32,998,163,2014-08-03T00:40:00,0,20952034,198113
OK,163,32,998,163,2014-08-03T00:45:00,0,20952483,198113
OK,163,32,998,163,2014-08-03T00:50:00,0,20952932,198113
OK,163,32,998,163,2014-08-03T00:55:00,0,20953381,198113
OK,163,32,998,163,2014-08-03T01:00:00,0,20953830,198113
OK,163,32,998,163,2014-08-03T01:05:00,0,20954279,198113
OK,163,32,998,163,2014-08-03T01:10:00,0,20954728,198113
OK,163,32,998,163,2014-08-03T01:15:00,0,20955177,198113
OK,163,32,998,163,2014-08-03T01:20:00,0,20955626,198113
OK,163,32,998,163,2014-08-03T01:25:00,0,20956075,198113
OK,163,32,998,163,2014-08-03T01:30:00,0,20956524,198113
OK,163,32,998,163,2014-08-03T01:35:00,0,20956973,198113
OK,163,32,998,163,2014-08-03T01:40:00,0,20957422,198113
OK,125,42,998,125,2014-08-03T01:45:00,1,20957871,198113
OK,125,42,998,125,2014-08-03T01:50:00,0,20958320,198113
OK,125,42,998,125,2014-08-03T01:55:00,0,20958769,198113
OK,125,42,998,125,2014-08-03T02:00:00,0,20959218,198113
OK,125,42,998,125,2014-08-03T02:05:00,0,20959667,198113
OK,125,42,998,125,2014-08-03T02:10:00,0,20960116,198113
OK,125,42,998,125,2014-08-03T02:15:00,0,20960565,198113
OK,125,42,998,125,2014-08-03T02:20:00,0,20961014,198113
OK,125,42,998,125,2014-08-03T02:25:00,0,20961463,198113